Weather History for Owosso, MI

Change the Weather History Date:

Tuesday, October 25, 2011

  Actual Average (KFNT) Record (KFNT)
Temperature  
Mean Temperature 51 °F 46 °F  
Max Temperature 60 °F 56 °F 81 °F (1963)
Min Temperature 42 °F 37 °F 20 °F (1960)
Degree Days  
Heating Degree Days 14 19  
Month to date heating degree days 369  
Since 1 July heating degree days 579  
Cooling Degree Days 0 0  
Month to date cooling degree days 2  
Year to date cooling degree days 528  
Growing Degree Days 1 (Base 50)    
Moisture  
Dew Point 41 °F    
Average Humidity 77    
Maximum Humidity 100    
Minimum Humidity 48    
Precipitation  
Precipitation 0.00 in 0.07 in 0.71 in (1939)
Month to date precipitation 2.01  
Year to date precipitation 26.32  
Snow  
Snow 0.00 in 0.00 in T in (1988)
Month to date snowfall 0.3  
Since 1 July snowfall 0.3  
Since 1 September snowfall 0.3  
Snow Depth -    
Sea Level Pressure  
Sea Level Pressure 30.05 in    
Wind  
Wind Speed 4 mph (ESE)    
Max Wind Speed 12 mph    
Max Gust Speed 17 mph    
Visibility 10 miles    
Events Rain    
T = Trace of Precipitation, MM = Missing Value Source: NWS Daily Summary

Daily Weather History Graph

Daily Weather History Graph

Search for Another Location

Airport:

Trip Planner

Search our weather history database for the weather conditions in past years. The results will help you decide how hot, cold, wet, or windy it might be!

Date:

Astronomy

Oct. 25, 2011 Rise Set
Actual Time 8:01 AM EDT 6:38 PM EDT
Civil Twilight 7:32 AM EDT 7:07 PM EDT
Nautical Twilight 6:59 AM EDT 7:40 PM EDT
Astronomical Twilight 6:26 AM EDT 8:13 PM EDT
Moon 6:32 AM EDT 5:39 PM EDT
Length of Visible Light 11h 34m
Length of Day
10h 36m
Waning Crescent, 2% of the Moon is Illuminated
Oct 25
Waning Crescent
Oct 26
New
Nov 2
First Quarter
Nov 10
Full
Nov 18
Last Quarter

Hourly Weather History & Observations

Time (EDT) Temp. Windchill Dew Point Humidity Pressure Visibility Wind Dir Wind Speed Gust Speed Precip Events Conditions
12:14 AM 44.6 °F 42.2 °F 39.2 °F 81% 30.09 in 10.0 mi WSW 4.6 mph - N/A   Clear
12:34 AM 44.6 °F 42.2 °F 37.4 °F 76% 30.09 in 10.0 mi WSW 4.6 mph - N/A   Clear
12:54 AM 44.6 °F 42.2 °F 39.2 °F 81% 30.09 in 10.0 mi SW 4.6 mph - N/A   Clear
1:14 AM 44.6 °F 41.4 °F 39.2 °F 81% 30.10 in 10.0 mi SW 5.8 mph - N/A   Clear
1:34 AM 44.6 °F 43.1 °F 37.4 °F 76% 30.10 in 10.0 mi WSW 3.5 mph - N/A   Clear
1:53 AM 44.6 °F 42.2 °F 37.4 °F 76% 30.10 in 10.0 mi WSW 4.6 mph - N/A   Clear
2:14 AM 44.6 °F 43.1 °F 37.4 °F 76% 30.11 in 10.0 mi WSW 3.5 mph - N/A   Clear
2:34 AM 42.8 °F 41.1 °F 37.4 °F 81% 30.11 in 10.0 mi West 3.5 mph - N/A   Clear
3:14 AM 42.8 °F - 39.2 °F 87% 30.12 in 10.0 mi Calm Calm - N/A   Scattered Clouds
3:34 AM 44.6 °F 43.1 °F 39.2 °F 81% 30.13 in 10.0 mi WSW 3.5 mph - N/A   Mostly Cloudy
3:54 AM 46.4 °F - 39.2 °F 76% 30.12 in 10.0 mi Calm Calm - N/A   Overcast
4:14 AM 46.4 °F - 39.2 °F 76% 30.12 in 10.0 mi Calm Calm - N/A   Overcast
4:34 AM 46.4 °F - 39.2 °F 76% 30.12 in 10.0 mi Calm Calm - N/A   Overcast
4:54 AM 46.4 °F - 39.2 °F 76% 30.12 in 10.0 mi Calm Calm - N/A   Overcast
5:14 AM 46.4 °F 45.2 °F 39.2 °F 76% 30.12 in 10.0 mi SW 3.5 mph - N/A   Scattered Clouds
5:34 AM 44.6 °F 43.1 °F 39.2 °F 81% 30.12 in 10.0 mi SW 3.5 mph - N/A   Clear
5:54 AM 44.6 °F - 37.4 °F 76% 30.12 in 10.0 mi Calm Calm - N/A   Clear
6:14 AM 44.6 °F - 37.4 °F 76% 30.12 in 10.0 mi Calm Calm - N/A   Scattered Clouds
6:34 AM 44.6 °F - 37.4 °F 76% 30.12 in 10.0 mi Calm Calm - N/A   Mostly Cloudy
6:54 AM 42.8 °F - 37.4 °F 81% 30.12 in 10.0 mi Calm Calm - N/A   Scattered Clouds
7:14 AM 44.6 °F - 41.0 °F 87% 30.12 in 10.0 mi Calm Calm - N/A   Mostly Cloudy
7:34 AM 44.6 °F - 37.4 °F 76% 30.12 in 10.0 mi Calm Calm - N/A   Overcast
7:54 AM 44.6 °F - 39.2 °F 81% 30.12 in 10.0 mi Calm Calm - N/A   Unknown
8:14 AM 44.6 °F - 39.2 °F 81% 30.13 in 5.0 mi Calm Calm - N/A   Unknown
8:34 AM 44.6 °F - 41.0 °F 87% 30.13 in 7.0 mi Calm Calm - N/A   Unknown
8:55 AM 44.6 °F - 42.8 °F 93% 30.12 in 5.0 mi Calm Calm - N/A   Unknown
9:14 AM 44.6 °F - 42.8 °F 93% 30.13 in 10.0 mi Calm Calm - N/A   Overcast
9:34 AM 44.6 °F - 42.8 °F 93% 30.12 in 10.0 mi Calm Calm - N/A   Overcast
9:54 AM 44.6 °F - 44.6 °F 100% 30.12 in 10.0 mi Calm Calm - N/A   Overcast
10:14 AM 44.6 °F - 44.6 °F 100% 30.12 in 10.0 mi Calm Calm - N/A   Overcast
10:34 AM 46.4 °F 45.2 °F 44.6 °F 93% 30.11 in 10.0 mi East 3.5 mph - N/A   Overcast
10:54 AM 46.4 °F 45.2 °F 44.6 °F 93% 30.12 in 10.0 mi NE 3.5 mph - N/A   Overcast
11:14 AM 46.4 °F 44.3 °F 44.6 °F 93% 30.12 in 10.0 mi ENE 4.6 mph - N/A   Overcast
11:34 AM 46.4 °F 45.2 °F 44.6 °F 93% 30.12 in 10.0 mi East 3.5 mph - N/A   Overcast
11:54 AM 50.0 °F - 44.6 °F 82% 30.12 in 10.0 mi East 4.6 mph - N/A   Overcast
12:14 PM 50.0 °F - 44.6 °F 82% 30.09 in 10.0 mi East 6.9 mph - N/A   Overcast
12:34 PM 50.0 °F - 44.6 °F 82% 30.09 in 10.0 mi East 6.9 mph - N/A   Overcast
12:54 PM 50.0 °F - 44.6 °F 82% 30.06 in 10.0 mi East 8.1 mph - N/A Rain Light Rain
1:14 PM 50.0 °F - 44.6 °F 82% 30.04 in 10.0 mi ESE 10.4 mph - N/A   Overcast
1:34 PM 51.8 °F - 44.6 °F 76% 30.00 in 10.0 mi ESE 11.5 mph - N/A   Overcast
1:54 PM 51.8 °F - 44.6 °F 76% 29.97 in 10.0 mi ESE 9.2 mph 17.3 mph N/A   Overcast
2:34 PM 55.4 °F - 42.8 °F 63% 29.94 in 10.0 mi SE 11.5 mph - N/A   Mostly Cloudy
2:54 PM 59.0 °F - 41.0 °F 51% 29.92 in 10.0 mi SE 8.1 mph - N/A   Mostly Cloudy
3:14 PM 59.0 °F - 41.0 °F 51% 29.91 in 10.0 mi SE 10.4 mph - N/A   Scattered Clouds
3:33 PM 60.8 °F - 41.0 °F 48% 29.90 in 10.0 mi East 5.8 mph - N/A   Scattered Clouds
3:54 PM 60.8 °F - 41.0 °F 48% 29.90 in 10.0 mi East 5.8 mph - N/A   Scattered Clouds
4:35 PM 60.8 °F - 41.0 °F 48% 29.89 in 10.0 mi ENE 5.8 mph - N/A   Mostly Cloudy
4:54 PM 60.8 °F - 41.0 °F 48% 29.88 in 10.0 mi East 8.1 mph - N/A   Scattered Clouds
5:14 PM 59.0 °F - 42.8 °F 55% 29.87 in 10.0 mi Calm Calm - N/A   Scattered Clouds
5:34 PM 57.2 °F - 42.8 °F 59% 29.87 in 10.0 mi ENE 10.4 mph - N/A   Scattered Clouds
5:54 PM 55.4 °F - 42.8 °F 63% 29.86 in 10.0 mi East 9.2 mph 16.1 mph N/A   Mostly Cloudy
6:14 PM 53.6 °F - 42.8 °F 67% 29.87 in 10.0 mi ENE 8.1 mph - N/A   Overcast
6:34 PM 53.6 °F - 44.6 °F 72% 29.88 in 10.0 mi ENE 6.9 mph - N/A   Overcast
7:13 PM 51.8 °F - 44.6 °F 76% 29.89 in 10.0 mi ENE 9.2 mph - N/A Rain Light Rain
7:34 PM 50.0 °F - 46.4 °F 87% 29.91 in 10.0 mi NNE 8.1 mph - N/A Rain Light Rain
7:54 PM 50.0 °F - 46.4 °F 87% 29.89 in 10.0 mi East 9.2 mph - N/A   Overcast
8:14 PM 50.0 °F - 46.4 °F 87% 29.87 in 10.0 mi East 8.1 mph - N/A   Overcast
8:34 PM 48.2 °F - 46.4 °F 93% 29.86 in 10.0 mi East 10.4 mph - N/A   Overcast
9:14 PM 50.0 °F - 46.4 °F 87% 29.82 in 10.0 mi ESE 11.5 mph - N/A   Overcast
9:34 PM 50.0 °F - 46.4 °F 87% 29.81 in 10.0 mi ESE 10.4 mph - N/A   Overcast
9:54 PM 50.0 °F - 46.4 °F 87% 29.81 in 10.0 mi SE 9.2 mph - N/A   Overcast
10:14 PM 50.0 °F - 46.4 °F 87% 29.82 in 10.0 mi North 4.6 mph - N/A   Overcast
10:34 PM 50.0 °F - 46.4 °F 87% 29.81 in 10.0 mi NE 3.5 mph - N/A   Overcast
10:54 PM 50.0 °F - 46.4 °F 87% 29.80 in 10.0 mi NE 3.5 mph - N/A   Overcast
11:34 PM 50.0 °F - 46.4 °F 87% 29.79 in 10.0 mi Calm Calm - N/A   Overcast